Powrót do katalogu

ELECTRON KICK STAGE R/B

AktywnyVLEO
NORAD 60420·ROCKET BODY·🇺🇸 United States

Wystrzelony Aug 11, 2024 z Rocket Lab Launch Complex 1

Loading…

Następne Przeloty (najbliższe 24 godziny)

TLE

ŚwieżeSource: Space-Track

Epoka: Sep 14, 2026, 08:55 UTC

1 60420U 24142B   26257.37203208  .00002186  00000-0  22711-3 0  9995
2 60420  53.0051  12.2605 0010706  11.6810 348.4419 14.93853581113886

Śledź ELECTRON KICK STAGE R/B w czasie rzeczywistym z AllMySat

Download on the App Store